METEOR M2

导读 | 豆包AI

METEOR M2(流星-M2)是独联体(CIS)区域主导推进的新一代气象卫星,于2014年7月8日发射入轨,隶属于俄罗斯“流星”系列气象卫星工程。卫星运行于近地太阳同步轨道,搭载可见光红外相机、多通道扫描辐射计等多种探测载荷,可常态化获取全球云分布、温湿度廓线、辐射参数等气象观测数据,为天气预报、气候监测和空间环境研究提供关键支撑,承担着延续区域气象观测能力、服务防灾减灾的重要使命。

基本信息
目录编号:
40069
目录名称:
METEOR M2
国际标识:
2014-037A
轨道中心:
EARTH
卫星名称:
METEOR M2
卫星全名:
--
卫星状态:
在轨 (已飞行4267 天)
发射日期:
2014-07-08 UTC
国别 :
俄罗斯(独联体) (CIS)
星等 :
--
轨道信息
数据来源 国际轨道数据 AOE轨道数据
星历时间 2026-03-13T23:00:26+0800
10小时前
查看轨道信息
2026-03-07T14:00:00+0800
6天前
查看轨道信息
半长轴 7198.654km 7198.65km
偏心率 0.0005135 0.000594
轨道倾角 98.503° 98.501°
近地点辐角 325.389° 346.717°
升交点赤经 51.793° 45.654°
平近点角 34.695° 168.567°
近地点 816.82km 816.237km
远地点 824.214km 824.789km
周期 101.306分钟 101.306分钟
每日圈数 14.214311 14.214324
详细信息
使用方式:
暂无
2D轨道图
3D轨道图
轨道高度分析图
轨道倾角分析图
轨道综合分析图
查看轨道综合分析图